Location: Ballingbuur
(53.0000°N, 5.7667°E)
Time: 21:18:39
(UTC+00:00)

Cosmos 2297 Rocket - Pass Details

Date: 29 November 2020
Orbit: 840 x 842 km, 71.0° (Epoch: 24 January)

Event Time Altitude Azimuth Distance (km) Brightness Sun altitude
Exits shadow 06:11:51 - 323° (NW) 2,574 4.2 -10.4°
Reaches altitude 10° 06:12:27 10° 328° (NNW) 2,474 4.2 -10.3°
Maximum altitude 06:14:55 13° 354° (N) 2,282 4.2 -10.0°
Drops below altitude 10° 06:17:22 10° 20° (NNE) 2,475 4.6 -9.6°
Sets 06:21:27 0° 48° (NE) 3,410 5.7 -9.1°
